Location: Evilard
(47.1497°N, 7.2375°E)
Time: 14:57:10
(UTC+00:00)

Daily predictions for brighter satellites

Satellite Brightness Start Highest point End
(mag) Time Altitude Azimuth Time Altitude Azimuth Time Altitude Azimuth
SPOT 3 Rocket 4.0 19:57:56 10° S 20:03:06 64° WSW 20:08:19 10° NNW
Cosmos 2237 4.4 19:58:35 10° S 20:04:09 56° ESE 20:09:45 10° NE
Cosmos 1455 2.3 20:08:15 10° N 20:12:05 67° E 20:15:55 10° SSE
Cosmos 1461 4.4 20:08:00 10° NW 20:12:22 37° WSW 20:16:41 10° S
Cosmos 1825 Rocket 4.1 20:11:53 10° SSE 20:16:03 42° E 20:20:16 10° NNE
ATLAS CENTAUR R/B 2.8 20:15:18 10° NNW 20:18:23 24° NE 20:21:24 10° E
Cosmos 1703 3.5 20:16:53 10° SSE 20:20:36 48° E 20:24:22 10° NNE
COSMOS 2428 3.8 20:17:05 10° SSE 20:21:32 24° ESE 20:26:01 10° NE
Cosmos 1812 Rocket 3.8 20:18:00 10° NNW 20:22:20 69° W 20:26:38 10° S
Cosmos 1844 3.9 20:18:09 10° NNW 20:23:56 67° ENE 20:29:32 10° SE
Cosmos 2322 4.1 20:19:54 10° S 20:25:15 43° ESE 20:30:37 10° NE
Cosmos 1602 Rocket 4.3 20:25:05 10° SSW 20:29:26 58° WNW 20:33:51 10° N
Cosmos 2263 Rocket 4.3 20:27:46 10° NW 20:31:51 21° W 20:35:57 10° SSW
Cosmos 1709 Rocket 4.2 20:26:03 10° SSE 20:32:10 57° E 20:38:22 10° NNE
Nadezhda 1 Rocket 4.3 20:26:32 10° NNW 20:32:57 76° W 20:39:19 10° S
MetOp-B 4.3 20:28:54 10° S 20:34:15 75° WSW 20:39:38 10° NNW
Atlas Centaur 2 3.9 20:31:11 10° SW 20:35:04 17° S 20:38:47 12° SE
Cosmos 2237 Rocket 4.0 20:33:23 10° ESE 20:35:34 12° E 20:37:46 10° ENE
Terra 2.9 20:31:40 11° SE 20:35:44 32° ENE 20:39:57 10° N
CARTOSAT-1 4.1 20:32:57 12° SE 20:36:47 46° ENE 20:40:55 10° N
Cosmos 2333 4.4 20:31:35 10° S 20:37:00 50° ESE 20:42:30 10° NE
Cosmos 2219 Rocket 2.8 20:32:27 10° S 20:37:28 35° ESE 20:42:32 10° NE
Cosmos 2360 Rocket 2.3 20:33:36 10° SSW 20:39:15 86° WNW 20:44:58 10° NNE
IGS 5A 3.5 20:35:46 10° SSE 20:39:56 86° W 20:44:07 10° NNW
Cosmos 2333 Rocket 2.5 20:41:49 10° S 20:47:11 46° ESE 20:52:38 10° NE
ATLAS 2AS CENTAUR R/B 4.0 20:43:51 10° NW 20:50:57 37° NNE 20:57:31 10° E
Cosmos 1315 Rocket 3.5 20:47:26 10° N 20:51:20 41° ENE 20:54:13 17° SE
Resurs 01 Rocket 3.4 20:48:03 10° SSW 20:51:53 29° W 20:55:45 10° NW
Cosmos 1818 3.8 20:49:10 10° SW 20:54:35 75° NW 21:00:04 10° NE
Cosmos-2242 3.3 20:50:33 10° NNW 20:54:53 70° W 20:59:06 11° S
Cosmos 773 Rocket 4.0 20:51:59 10° SSW 20:57:15 71° ESE 21:02:32 10° NNE
SL-16 R/B 4.2 20:53:25 10° WSW 20:58:30 33° NW 21:03:36 10° NNE
Cosmos 2221 3.6 20:55:52 10° N 20:59:47 31° ENE 21:02:29 17° SE
ERS-1 Rocket 3.0 20:56:51 14° SSE 21:01:12 84° ENE 21:06:17 10° NNW
GEOS 3 Rocket 3.7 20:58:17 10° NE 21:03:42 88° NW 21:09:06 10° SW
USA 215 3.3 21:00:36 10° ENE 21:07:06 61° SE 21:13:32 10° SW
Cosmos 1892 4.4 21:07:01 16° ESE 21:08:18 19° E 21:11:01 10° NE
Cosmos 2278 Rocket 3.0 21:03:24 10° NNW 21:08:49 43° NE 21:13:09 15° ESE
ATLAS 5 CENTAUR R/B 2.2 21:07:12 10° SW 21:11:19 59° NW 21:16:00 10° NE
Meteor 1-11 4.2 21:06:13 10° S 21:11:51 87° E 21:17:35 10° NNE
Cosmos 1844 Rocket 3.5 21:08:19 10° NW 21:13:36 44° WSW 21:18:16 13° S
Cosmos 1400 Rocket 3.9 21:10:26 10° NNW 21:14:10 39° W 21:17:41 11° SSW
Gblst 52 Del rocket 4.4 21:08:54 10° WNW 21:14:36 84° NNE 21:20:33 12° ESE
SPOT 5 3.0 21:13:56 17° S 21:17:56 80° WSW 21:22:46 10° NNW
Lacrosse 5 rocket 4.0 21:17:03 10° NW 21:20:15 21° N 21:23:20 10° NE
USA 81 4.1 21:19:52 12° S 21:24:46 83° W 21:30:05 10° N
Cosmos 2058 3.9 21:25:00 23° SE 21:26:40 32° E 21:30:22 10° NNE
BREEZE M DEB (TANK) 2.6 21:25:34 10° W 21:27:38 28° SSW 21:27:38 28° SSW
Cosmos 2181 Rocket 4.2 21:22:46 10° NNW 21:29:08 73° W 21:34:15 16° S
Cosmos 1408 4.2 21:29:06 18° ESE 21:29:46 19° E 21:32:21 10° NE
In-Cosmos 22 Rocket 4.5 21:29:55 22° SSE 21:32:59 46° E 21:38:03 10° NNE
Cosmos 2074 Rocket 4.0 21:29:16 18° S 21:33:56 66° E 21:40:06 10° NNE
TSX-5 4.1 21:32:08 10° NNW 21:35:32 51° ENE 21:37:36 25° ESE
Cosmos 1076 Rocket 4.2 21:36:08 26° SE 21:37:51 37° E 21:41:49 10° NNE
Cosmos 1680 Rocket 4.2 21:35:41 24° SSE 21:38:10 36° ESE 21:43:01 10° NE
USA 267 3.3 21:34:04 14° ESE 21:39:52 79° NNE 21:46:27 10° NW
Cosmos 2084 3.7 21:41:36 10° NW 21:46:02 63° SW 21:48:05 30° SSE
Cosmos 1842 Rocket 3.6 21:42:20 10° NNW 21:46:42 75° W 21:49:02 27° S
JB-3 4.1 21:44:18 10° NNE 21:48:10 75° ESE 21:49:57 30° S
Cosmos 2151 4.5 21:47:18 20° ESE 21:48:25 22° E 21:51:45 10° NE
MTI 3.6 21:49:02 10° NNE 21:52:08 84° W 21:53:10 38° SSW
Cosmos 923 Rocket 4.0 21:52:19 23° S 21:55:34 66° ESE 22:00:50 10° NNE
ATLAS CENTAUR R/B 1.8 21:53:56 10° NW 21:57:24 40° WSW 21:58:26 32° SSW
Cosmos 1825 3.3 21:58:09 27° ESE 21:58:48 28° E 22:02:06 10° NNE
ALOS 2 4.1 21:58:03 18° ESE 22:00:10 26° ENE 22:03:50 10° N
Cosmos 1980 3.7 21:56:55 23° S 22:00:23 61° ESE 22:05:58 10° NNE
Cosmos 967 Rocket 4.5 21:56:09 10° SSW 22:02:37 79° ESE 22:09:06 10° NE
COSMOS 2428 3.3 21:59:48 10° SW 22:05:23 58° WNW 22:11:01 10° NNE
Cosmos 1869 3.9 22:03:45 10° NNW 22:07:37 51° W 22:09:22 29° SSW
NOSS 0 Rocket 3.9 22:07:31 15° SSW 22:12:44 86° ESE 22:18:57 10° NNE
Terra 3.1 22:10:33 18° SSW 22:13:26 33° W 22:17:45 10° NNW
Cosmos 1624 Rocket 4.3 22:09:12 10° NNW 22:14:23 58° ENE 22:16:57 29° SE
NOSS 3-4 (A) 3.9 22:07:43 10° NW 22:14:42 83° NE 22:19:47 23° SE
NOSS 3-4 (C) 3.9 22:07:50 10° NW 22:14:48 82° NE 22:19:55 23° SE
Cosmos 1610 Rocket 4.5 22:11:20 24° S 22:15:18 87° E 22:21:44 10° N
Cosmos 2237 Rocket 2.1 22:14:58 23° SSW 22:18:39 78° ESE 22:24:22 10° NNE
Genesis I 3.2 22:18:35 46° SSE 22:19:19 55° ESE 22:23:09 10° NE
Cosmos 2344 3.6 22:16:02 20° SSW 22:21:16 57° ESE 22:29:00 10° NE
Cosmos 2219 Rocket 3.4 22:16:04 10° SW 22:21:20 41° NW 22:26:40 10° NNE
Elektron 1 4.2 22:21:21 33° SW 22:22:47 83° SE 22:28:03 10° NE
Atlas Centaur 2 4.3 22:19:23 10° SW 22:21:21 14° SSW 22:21:21 14° SSW
DELTA 2 R/B (1) 4.1 22:24:23 10° SW 22:29:26 35° S 22:30:03 34° SSE
Thor Agena Rocket 3.4 22:25:43 10° NNE 22:30:52 86° ESE 22:33:18 32° SSW
Cosmos 2333 Rocket 3.8 22:26:26 10° WSW 22:31:36 34° NW 22:36:50 10° NNE
Cosmos 2221 4.1 22:33:33 10° NNW 22:37:15 27° W 22:39:20 19° SW
BREEZE-M DEB (TANK) 1.3 22:37:32 10° WNW 22:41:16 82° NNE 22:41:22 79° ENE
Iridium 2 4.0 22:37:43 10° NNW 22:41:30 59° W 22:42:26 44° SW
Cosmos 1371 Rocket 4.0 22:36:53 10° NNW 22:42:10 76° WSW 22:44:15 38° S
ATLAS 2AS CENTAUR R/B 2.8 22:35:04 10° NW 22:42:40 77° SW 22:46:25 30° SSE
Cosmos 1892 4.0 22:42:00 22° WSW 22:43:45 33° WNW 22:47:14 10° N
EO 1 Del DPAF 3.3 22:40:11 10° N 22:43:57 71° WNW 22:44:59 44° SW
Cosmos 1766 Rocket 3.8 22:44:24 43° SE 22:45:28 56° E 22:49:48 10° NNE
MOS 1-B Rocket 4.4 22:38:00 10° NNE 22:45:50 88° WNW 22:49:56 26° SSW
Okean 3 Rocket 3.6 22:47:02 45° SSE 22:48:17 70° E 22:52:42 10° NNE
Aureole 2 Rocket 2.2 22:46:23 10° NNW 22:48:59 63° NNE 22:48:59 63° NNE
Cosmos 1328 Rocket 3.9 22:44:59 10° N 22:49:14 53° ENE 22:50:25 39° SE
USA 215 3.9 22:43:41 10° NE 22:50:06 57° NNW 22:56:28 10° W
Cosmos 1606 2.7 22:47:42 10° N 22:51:36 70° E 22:52:19 54° SE
Cosmos 2112 Rocket 4.3 22:48:24 24° SW 22:51:40 67° WNW 22:57:02 10° NNE
Cosmos 2278 Rocket 3.2 22:47:43 10° NW 22:52:47 34° WSW 22:54:59 26° SW
Cosmos 2218 Rocket 4.2 22:50:54 33° SSE 22:53:45 60° E 22:59:57 10° NNE
Cosmos 2297 3.7 22:48:44 10° NNW 22:54:31 78° ENE 22:57:11 33° SE
Cosmos 158 Rocket 4.4 22:52:57 22° SW 22:55:54 55° WNW 23:00:45 10° NNE
Cosmos 1420 Rocket 4.1 22:53:05 10° NNW 22:58:23 72° ENE 23:00:36 35° SE
Cosmos 2366 rocket 4.2 22:56:35 33° SSE 22:59:26 63° E 23:05:42 10° NNE
Lacrosse 5 rocket 3.3 22:56:59 10° NW 23:00:28 27° NNE 23:03:47 10° ENE
Spot 4 4.5 22:59:07 32° SW 23:00:45 44° W 23:05:21 10° NNW
Cosmos 1943 Rocket 3.0 22:55:38 10° NNW 23:01:06 46° NE 23:04:40 20° ESE
Cosmos 1633 4.0 23:01:11 26° E 23:01:19 26° E 23:04:23 10° NNE
SL-16 R/B 2.2 23:00:46 37° S 23:02:59 66° ESE 23:08:38 10° NNE
Cosmos 1408 4.1 23:03:24 23° WSW 23:04:35 29° WNW 23:07:46 10° NNW
Cosmos 2056 Rocket 3.8 23:00:46 10° NNW 23:06:04 57° WSW 23:07:58 37° SSW
Cosmos 1959 Rocket 4.4 23:06:20 35° S 23:09:02 75° E 23:15:14 10° NNE
Cosmos 1743 Rocket 4.5 23:12:36 31° ESE 23:13:28 34° E 23:17:24 10° NNE
Cosmos 2341 Rocket 4.2 23:11:46 28° SSW 23:15:07 64° WNW 23:21:18 10° N
Cosmos 332 Rocket 3.9 23:14:57 10° NNW 23:19:45 70° ENE 23:21:28 39° SE
Meteor 2-3 Rocket 3.7 23:21:02 39° S 23:23:13 77° E 23:28:56 10° NNE
USA 267 3.9 23:21:24 31° SSW 23:23:15 36° SW 23:29:14 10° WNW
IRIDIUM 104 4.4 23:23:26 39° SSW 23:25:23 72° W 23:30:38 10° N
Cosmos 2151 4.1 23:23:52 26° WSW 23:25:30 36° WNW 23:29:29 10° N
Helios 1A 2.9 23:24:53 54° SSE 23:25:48 87° ENE 23:30:00 10° NNW
Cosmos 405 3.4 23:25:16 10° N 23:28:45 52° ENE 23:29:08 49° ESE
Meteor 1-26 Rocket 4.3 23:26:51 10° NNW 23:32:52 83° W 23:35:20 38° S
Cosmos 1452 Rocket 3.4 23:27:53 10° NNW 23:33:12 87° WSW 23:35:06 41° SSE
SL-8 Rocket 4.2 23:30:59 30° SSW 23:34:04 61° WNW 23:40:11 10° N
CZ-4C R/B 3.6 23:27:14 10° NW 23:34:04 54° NE 23:42:00 10° ESE
Cosmos 1825 4.1 23:32:56 18° WSW 23:34:19 22° WNW 23:37:21 10° NNW
Cosmos 1340 2.7 23:34:23 57° SW 23:34:55 66° WNW 23:38:41 10° N
COSMOS 2455 2.9 23:29:02 10° NNW 23:35:07 82° NE 23:38:24 29° SE
PSLV R/B 4.2 23:31:47 10° NNE 23:35:47 41° E 23:36:34 37° SE
ALOS 2 3.5 23:35:27 32° SW 23:36:21 35° W 23:40:25 10° NNW
Cosmos 1408 Rocket 3.6 23:35:56 48° SSW 23:37:04 71° W 23:41:29 10° N
Cosmos 1933 3.8 23:33:45 10° NNW 23:37:37 46° W 23:38:13 42° WSW
SL-16 R/B 4.5 23:33:32 10° ESE 23:38:16 23° NE 23:43:02 10° N
Cosmos 1151 Rocket 3.6 23:35:02 10° NNW 23:39:09 43° W 23:40:03 38° SW
APEX 3.6 23:42:33 10° NW 23:44:21 35° NW 23:44:21 35° NW
Cosmos 1727 Rocket 4.0 23:39:04 10° N 23:45:19 78° W 23:48:04 36° S
Cosmos 44 3.6 23:43:38 28° WSW 23:45:42 54° NW 23:50:05 10° NNE
Cosmos 2369 Rocket 2.4 23:40:07 10° NNW 23:45:43 68° ENE 23:48:49 27° SE
Cosmos 1500 Rocket 3.6 23:44:49 50° SSE 23:45:51 71° E 23:50:14 10° NNE
Resurs 1-4 Rocket 4.3 23:43:17 10° ENE 23:45:59 14° E 23:48:40 10° ESE
GP-B 4.2 23:43:24 10° NNW 23:47:25 34° W 23:48:50 27° WSW
SL-4 R/B 3.7 23:48:59 11° NW 23:48:59 11° NW 23:49:08 10° NW
ISS -1.0 23:51:00 11° E 23:51:00 11° E 23:51:07 10° E
Cosmos 371 Rocket 3.7 23:44:42 10° NNW 23:49:22 46° WSW 23:50:25 40° SW
SeaSat 1 4.2 23:46:44 10° ENE 23:50:11 19° ESE 23:51:20 17° ESE
Helios 1B rocket 2.8 23:50:33 10° NNE 23:54:37 53° E 23:55:23 45° SE
CREW DRAGON DEMO-1 DEB 3.9 23:54:49 25° WNW 23:56:14 44° NNW 23:59:12 10° ENE
